NORTHERN QUEENS  -  Heat Advisory Heat Advisory     Air Quality Alert Air Quality Alert        SOUTHERN QUEENS  -  Heat Advisory Heat Advisory     Air Quality Alert Air Quality Alert      

Active alerts

Northern Queens
  Details for Northern Queens Heat Advisory  +1 additional alert
Southern Queens
  Details for Southern Queens Heat Advisory  +1 additional alert


WXM80 ListenWXM80 Stop

You find our weather info also at:

UK Metoffice

WeatherCloud

Weather Underground

Northeastern Weather Network

AWEKAS

Citizen Weather Observer Program (CWOP)

HAMweather, WeatherForYou, PWS Weather


Weather Underground History page Text

Daily Summary for January 6, 2017 Units:  Metric    English   Both
« Previous Day
Next Day »
Daily Weekly Monthly Yearly Custom
  High: Low: Average:
Temperature: 1.1 °C -3.1 °C -0.9 °C
Dew Point: -3.1 °C -10.2 °C -5.3 °C
Humidity: 90 % 57 % 73 %
Wind Speed: 11.7 km/h 0 km/h 4 km/h
Wind Gust: 46.7 km/h - -
Wind:- - SSW
Pressure: 1024.3 hPa 1012.4 hPa -
Precipitation: 0.25 mm    
Historical Graphs
 
 
Tabular Data for January 6, 2017
Time Temperature Dew Point Pressure Wind Wind Speed Wind Gust Humidity Rainfall Rate (Hourly)
00:04 -0.1 °C -7.6 °C 1013.1 hPa SW 0.8 km/h 46.7 km/h 57 % 0 mm
00:09 -0.1 °C -7.6 °C 1013.4 hPa SW 4.2 km/h 46.7 km/h 57 % 0 mm
00:15 -0.1 °C -7.6 °C 1013.4 hPa SW 0.5 km/h 46.7 km/h 57 % 0 mm
00:20 -0.1 °C -7.3 °C 1013.4 hPa SW 1.3 km/h 46.7 km/h 58 % 0 mm
00:25 -0.1 °C -7.3 °C 1013.4 hPa WNW 2.1 km/h 46.7 km/h 58 % 0 mm
00:30 -0.1 °C -6.7 °C 1013.4 hPa SSW 4 km/h 46.7 km/h 61 % 0 mm
00:35 -0.1 °C -6.1 °C 1013.8 hPa WSW 7.7 km/h 46.7 km/h 64 % 0 mm
00:40 -0.2 °C -5.8 °C 1013.8 hPa SW 6.4 km/h 46.7 km/h 66 % 0 mm
00:45 -0.3 °C -5.5 °C 1013.8 hPa WSW 6.1 km/h 46.7 km/h 68 % 0 mm
00:50 -0.4 °C -5.2 °C 1013.8 hPa SW 5.5 km/h 46.7 km/h 70 % 0 mm
00:55 -0.4 °C -5.1 °C 1013.8 hPa SSW 2.1 km/h 46.7 km/h 71 % 0 mm
01:00 -0.5 °C -4.9 °C 1013.8 hPa WSW 1.3 km/h 46.7 km/h 72 % 0 mm
01:05 -0.6 °C -4.6 °C 1014.1 hPa SSW 3.7 km/h 46.7 km/h 74 % 0 mm
01:10 -0.7 °C -4.6 °C 1014.1 hPa SW 3.7 km/h 46.7 km/h 75 % 0 mm
01:15 -0.7 °C -4.3 °C 1013.8 hPa SW 2.6 km/h 46.7 km/h 77 % 0 mm
01:20 -0.8 °C -4.1 °C 1013.8 hPa WSW 6.1 km/h 46.7 km/h 78 % 0 mm
01:25 -0.9 °C -4.1 °C 1013.8 hPa SW 4.7 km/h 46.7 km/h 79 % 0 mm
01:30 -1 °C -4 °C 1013.8 hPa SW 2.6 km/h 46.7 km/h 80 % 0 mm
01:35 -1.1 °C -3.9 °C 1013.8 hPa WSW 1.9 km/h 46.7 km/h 81 % 0 mm
01:41 -1.2 °C -3.8 °C 1013.8 hPa WSW 2.9 km/h 46.7 km/h 82 % 0 mm
01:46 -1.2 °C -3.9 °C 1013.8 hPa SW 0.8 km/h 46.7 km/h 82 % 0 mm
01:51 -1.3 °C -3.8 °C 1013.8 hPa SW 3.5 km/h 46.7 km/h 83 % 0 mm
01:56 -1.3 °C -3.7 °C 1013.8 hPa SW 1.6 km/h 46.7 km/h 84 % 0 mm
02:01 -1.4 °C -3.7 °C 1013.8 hPa West 2.9 km/h 46.7 km/h 84 % 0 mm
02:06 -1.4 °C -3.6 °C 1013.8 hPa Calm   46.7 km/h 85 % 0 mm
02:11 -1.4 °C -3.7 °C 1013.8 hPa Calm   46.7 km/h 85 % 0 mm
02:16 -1.4 °C -3.7 °C 1013.8 hPa Calm   46.7 km/h 85 % 0 mm
02:21 -1.4 °C -3.5 °C 1013.8 hPa West 1.3 km/h 46.7 km/h 86 % 0 mm
02:26 -1.4 °C -3.3 °C 1013.8 hPa WNW 0.3 km/h 46.7 km/h 87 % 0 mm
02:31 -1.4 °C -3.3 °C 1013.8 hPa WNW 1.3 km/h 46.7 km/h 87 % 0 mm
02:36 -1.4 °C -3.2 °C 1013.8 hPa West 0.8 km/h 46.7 km/h 88 % 0 mm
02:41 -1.4 °C -3.2 °C 1013.8 hPa NW 3.9 km/h 46.7 km/h 88 % 0 mm
02:43 -1.5 °C -3.2 °C 1013.8 hPa NW 1.1 km/h 46.7 km/h 88 % 0 mm
02:48 -1.5 °C -3.2 °C 1013.8 hPa WNW 3.5 km/h 46.7 km/h 88 % 0 mm
02:53 -1.6 °C -3.1 °C 1013.8 hPa West 4 km/h 46.7 km/h 89 % 0 mm
02:58 -1.6 °C -3.1 °C 1013.8 hPa WNW 3.2 km/h 46.7 km/h 89 % 0 mm
03:03 -1.6 °C -3.1 °C 1013.4 hPa NNW 2.9 km/h 46.7 km/h 89 % 0 mm
03:08 -1.6 °C -3.2 °C 1013.4 hPa NW 0.2 km/h 46.7 km/h 89 % 0 mm
03:13 -1.6 °C -3.1 °C 1013.1 hPa Calm   46.7 km/h 90 % 0.25 mm
03:18 -1.7 °C -3.1 °C 1013.1 hPa NW 0.3 km/h 46.7 km/h 90 % 0.25 mm
03:23 -1.7 °C -3.1 °C 1012.8 hPa Calm   46.7 km/h 90 % 0.25 mm
03:28 -1.7 °C -3.1 °C 1012.8 hPa Calm   46.7 km/h 90 % 0.25 mm
03:33 -1.7 °C -3.2 °C 1012.8 hPa Calm   46.7 km/h 90 % 0.25 mm
03:39 -1.7 °C -3.2 °C 1012.8 hPa Calm   46.7 km/h 90 % 0.25 mm
03:44 -1.8 °C -3.2 °C 1012.8 hPa Calm   46.7 km/h 90 % 0.25 mm
03:49 -1.8 °C -3.2 °C 1012.8 hPa Calm   46.7 km/h 90 % 0.25 mm
03:54 -1.8 °C -3.2 °C 1012.8 hPa NNW 1.3 km/h 46.7 km/h 90 % 0.25 mm
03:59 -1.8 °C -3.3 °C 1012.8 hPa NNE 3.4 km/h 46.7 km/h 90 % 0.25 mm
04:04 -1.8 °C -3.3 °C 1012.4 hPa NNE 1.9 km/h 46.7 km/h 90 % 0.25 mm
04:09 -1.8 °C -3.3 °C 1012.4 hPa Calm   4.8 km/h 90 % 0 mm
04:14 -1.8 °C -3.3 °C 1012.4 hPa North 1 km/h 46.7 km/h 90 % 0 mm
04:19 -1.8 °C -3.3 °C 1012.4 hPa North 1.6 km/h 4.8 km/h 90 % 0 mm
04:24 -1.9 °C -3.3 °C 1012.4 hPa NNE 3.2 km/h 8 km/h 90 % 0 mm
04:29 -1.9 °C -3.3 °C 1012.4 hPa NNE 3.2 km/h 6.4 km/h 90 % 0 mm
04:34 -1.9 °C -3.4 °C 1012.8 hPa North 3.2 km/h 8 km/h 89 % 0 mm
04:39 -1.9 °C -3.4 °C 1012.8 hPa North 1.6 km/h 8 km/h 89 % 0 mm
04:44 -1.9 °C -3.4 °C 1012.4 hPa North 3.2 km/h 9.7 km/h 89 % 0 mm
04:49 -1.9 °C -3.4 °C 1012.8 hPa North 1.6 km/h 4.8 km/h 89 % 0 mm
04:54 -1.9 °C -3.5 °C 1013.1 hPa Calm   46.7 km/h 89 % 0 mm
04:59 -1.9 °C -3.5 °C 1013.1 hPa North 1.6 km/h 46.7 km/h 89 % 0 mm
05:04 -1.9 °C -3.5 °C 1013.1 hPa NNW 2.3 km/h 46.7 km/h 89 % 0 mm
05:09 -1.9 °C -3.5 °C 1013.1 hPa NNW 0.8 km/h 46.7 km/h 89 % 0 mm
05:14 -1.9 °C -3.4 °C 1013.1 hPa Calm   46.7 km/h 89 % 0 mm
05:19 -1.9 °C -3.4 °C 1013.1 hPa Calm   46.7 km/h 89 % 0 mm
05:24 -1.9 °C -3.4 °C 1013.1 hPa NNW 1.3 km/h 46.7 km/h 89 % 0 mm
05:29 -1.9 °C -3.4 °C 1013.1 hPa NNE 4.7 km/h 46.7 km/h 89 % 0 mm
05:35 -1.9 °C -3.4 °C 1012.8 hPa NNE 6.1 km/h 46.7 km/h 89 % 0 mm
05:40 -1.9 °C -3.7 °C 1012.8 hPa North 2.6 km/h 46.7 km/h 88 % 0 mm
05:45 -1.9 °C -3.8 °C 1012.8 hPa NW 2.4 km/h 46.7 km/h 87 % 0 mm
05:50 -1.9 °C -3.8 °C 1013.1 hPa NNE 4.2 km/h 46.7 km/h 87 % 0 mm
05:55 -1.9 °C -3.8 °C 1013.4 hPa NNE 2.6 km/h 46.7 km/h 87 % 0 mm
06:00 -1.9 °C -3.8 °C 1013.8 hPa NNW 0.6 km/h 46.7 km/h 87 % 0 mm
06:05 -1.9 °C -3.8 °C 1014.1 hPa North 1.6 km/h 46.7 km/h 87 % 0 mm
06:10 -1.9 °C -3.8 °C 1014.1 hPa NNE 7.2 km/h 46.7 km/h 87 % 0 mm
06:15 -1.9 °C -4 °C 1014.1 hPa NNE 4.2 km/h 46.7 km/h 86 % 0 mm
06:20 -1.9 °C -3.9 °C 1014.4 hPa NNE 6.3 km/h 46.7 km/h 86 % 0 mm
06:25 -1.9 °C -3.9 °C 1014.4 hPa NNE 1.1 km/h 46.7 km/h 86 % 0 mm
06:30 -1.9 °C -3.9 °C 1014.1 hPa North 7.1 km/h 46.7 km/h 86 % 0 mm
06:35 -1.9 °C -3.9 °C 1014.8 hPa North 6.9 km/h 46.7 km/h 86 % 0 mm
06:41 -1.9 °C -3.9 °C 1014.8 hPa NNW 3.1 km/h 46.7 km/h 86 % 0 mm
06:46 -1.8 °C -4 °C 1014.8 hPa NNW 5.8 km/h 46.7 km/h 85 % 0 mm
06:51 -1.9 °C -4.2 °C 1014.4 hPa North 3.4 km/h 46.7 km/h 84 % 0 mm
06:56 -1.9 °C -4.2 °C 1014.4 hPa NE 7.7 km/h 46.7 km/h 84 % 0 mm
07:01 -1.9 °C -4.2 °C 1014.8 hPa North 6.4 km/h 46.7 km/h 84 % 0 mm
07:06 -1.9 °C -4.2 °C 1015.1 hPa NNW 2.3 km/h 46.7 km/h 84 % 0 mm
07:11 -1.9 °C -4.2 °C 1015.5 hPa Calm   46.7 km/h 84 % 0 mm
07:16 -1.9 °C -4.2 °C 1015.5 hPa NNW 3.9 km/h 46.7 km/h 84 % 0 mm
07:21 -1.9 °C -4.1 °C 1015.1 hPa NW 4.2 km/h 46.7 km/h 85 % 0 mm
07:26 -1.9 °C -4.1 °C 1015.1 hPa NW 1.4 km/h 46.7 km/h 85 % 0 mm
07:31 -1.9 °C -4.1 °C 1015.1 hPa NW 1.8 km/h 46.7 km/h 85 % 0 mm
07:36 -1.9 °C -4 °C 1014.8 hPa North 6.1 km/h 46.7 km/h 86 % 0 mm
07:41 -1.9 °C -4 °C 1014.8 hPa NNE 0.3 km/h 46.7 km/h 86 % 0 mm
07:46 -2 °C -4.1 °C 1015.1 hPa NNW 1.4 km/h 46.7 km/h 86 % 0 mm
07:51 -2 °C -4.1 °C 1015.5 hPa NW 1.1 km/h 46.7 km/h 86 % 0 mm
07:56 -2 °C -3.9 °C 1015.5 hPa NW 3.5 km/h 46.7 km/h 87 % 0 mm
08:02 -2 °C -3.9 °C 1015.5 hPa NNW 3.4 km/h 46.7 km/h 87 % 0 mm
08:07 -2.1 °C -3.9 °C 1015.5 hPa NW 5.1 km/h 46.7 km/h 87 % 0 mm
08:12 -2.1 °C -3.8 °C 1015.1 hPa WNW 3.2 km/h 46.7 km/h 88 % 0 mm
08:17 -2.1 °C -3.8 °C 1015.5 hPa NW 0.5 km/h 46.7 km/h 88 % 0 mm
08:22 -2.1 °C -3.8 °C 1015.5 hPa NNW 2.4 km/h 46.7 km/h 88 % 0 mm
08:27 -2 °C -3.7 °C 1015.5 hPa West 1.3 km/h 46.7 km/h 88 % 0 mm
08:32 -2 °C -3.7 °C 1015.8 hPa NNW 1.8 km/h 46.7 km/h 88 % 0 mm
08:37 -2 °C -3.7 °C 1015.8 hPa NW 2.9 km/h 46.7 km/h 88 % 0 mm
08:42 -1.9 °C -3.7 °C 1016.1 hPa WNW 3.1 km/h 46.7 km/h 88 % 0 mm
08:47 -1.9 °C -3.6 °C 1016.1 hPa NW 2.4 km/h 46.7 km/h 88 % 0 mm
08:52 -1.8 °C -3.6 °C 1015.8 hPa North 0.8 km/h 46.7 km/h 88 % 0 mm
08:57 -1.7 °C -3.4 °C 1016.1 hPa NNW 2.4 km/h 46.7 km/h 88 % 0 mm
09:02 -1.7 °C -3.4 °C 1016.1 hPa NNW 4.3 km/h 46.7 km/h 88 % 0 mm
09:07 -1.6 °C -3.3 °C 1016.1 hPa NW 1.4 km/h 46.7 km/h 88 % 0 mm
09:12 -1.5 °C -3.2 °C 1015.8 hPa North 3.2 km/h 46.7 km/h 88 % 0 mm
09:17 -1.4 °C -3.3 °C 1016.1 hPa NW 6 km/h 46.7 km/h 87 % 0 mm
09:23 -1.4 °C -3.5 °C 1016.5 hPa NNW 5.3 km/h 46.7 km/h 86 % 0 mm
09:28 -1.4 °C -3.7 °C 1016.1 hPa NNE 4.8 km/h 46.7 km/h 85 % 0 mm
09:33 -1.4 °C -3.5 °C 1016.1 hPa North 2.4 km/h 46.7 km/h 86 % 0 mm
09:38 -1.3 °C -3.6 °C 1016.5 hPa North 3.5 km/h 46.7 km/h 85 % 0 mm
09:43 -1.2 °C -3.4 °C 1016.5 hPa NW 1.9 km/h 46.7 km/h 85 % 0 mm
09:48 -1.2 °C -3.4 °C 1016.5 hPa NNE 5.8 km/h 46.7 km/h 85 % 0 mm
09:53 -1.1 °C -3.3 °C 1016.5 hPa NNW 4.3 km/h 46.7 km/h 85 % 0 mm
09:58 -1.1 °C -3.4 °C 1016.5 hPa NNW 3.9 km/h 46.7 km/h 84 % 0 mm
10:03 -1 °C -3.4 °C 1016.8 hPa NNE 3.2 km/h 46.7 km/h 84 % 0 mm
10:08 -0.9 °C -3.4 °C 1016.8 hPa NNW 3.1 km/h 46.7 km/h 83 % 0 mm
10:13 -0.8 °C -3.3 °C 1016.5 hPa North 7.7 km/h 46.7 km/h 83 % 0 mm
10:18 -0.8 °C -3.4 °C 1016.8 hPa North 4.7 km/h 46.7 km/h 82 % 0 mm
10:23 -0.7 °C -3.6 °C 1016.8 hPa NNW 7.2 km/h 46.7 km/h 81 % 0 mm
10:28 -0.6 °C -3.3 °C 1016.5 hPa North 3.4 km/h 46.7 km/h 82 % 0 mm
10:33 -0.4 °C -3.2 °C 1016.8 hPa NNE 2.3 km/h 46.7 km/h 82 % 0 mm
10:39 -0.3 °C -3.2 °C 1016.8 hPa North 5.8 km/h 46.7 km/h 81 % 0 mm
10:44 -0.2 °C -3.3 °C 1016.8 hPa North 6 km/h 46.7 km/h 80 % 0 mm
10:49 -0.3 °C -3.7 °C 1016.8 hPa North 5.5 km/h 46.7 km/h 78 % 0 mm
10:54 -0.2 °C -3.4 °C 1016.5 hPa North 4 km/h 46.7 km/h 79 % 0 mm
10:59 -0.2 °C -3.3 °C 1016.5 hPa North 5.3 km/h 46.7 km/h 80 % 0 mm
11:04 -0.2 °C -3.2 °C 1016.5 hPa North 8 km/h 12.9 km/h 80 % 0 mm
11:09 -0.1 °C -3.3 °C 1016.5 hPa North 9.7 km/h 16.1 km/h 79 % 0 mm
11:14 0 °C -3.4 °C 1016.8 hPa North 9.7 km/h 14.5 km/h 78 % 0 mm
11:19 0.1 °C -3.1 °C 1016.8 hPa North 9.7 km/h 14.5 km/h 79 % 0 mm
11:24 0.1 °C -3.4 °C 1016.5 hPa North 4.8 km/h 12.9 km/h 77 % 0 mm
11:29 0.1 °C -3.5 °C 1016.1 hPa North 8 km/h 9.7 km/h 77 % 0 mm
11:34 0.1 °C -3.3 °C 1016.1 hPa North 4.8 km/h 9.7 km/h 78 % 0 mm
11:39 0.2 °C -3.4 °C 1016.1 hPa North 4.8 km/h 12.9 km/h 77 % 0 mm
11:44 0.1 °C -3.6 °C 1016.1 hPa North 1.6 km/h 9.7 km/h 76 % 0 mm
11:49 0.1 °C -3.7 °C 1016.1 hPa North 3.2 km/h 11.3 km/h 76 % 0 mm
11:54 0.1 °C -3.5 °C 1016.1 hPa North 1.6 km/h 8 km/h 77 % 0 mm
11:59 0.1 °C -3.3 °C 1016.1 hPa North 3.9 km/h 46.7 km/h 78 % 0 mm
12:04 0.2 °C -3.5 °C 1015.8 hPa NNE 4.8 km/h 9.7 km/h 76 % 0 mm
12:09 0.3 °C -3.4 °C 1016.1 hPa North 3.2 km/h 9.7 km/h 76 % 0 mm
12:14 0.6 °C -3.2 °C 1015.8 hPa North 4.8 km/h 12.9 km/h 76 % 0 mm
12:19 0.7 °C -3.3 °C 1015.8 hPa NNE 4.8 km/h 11.3 km/h 75 % 0 mm
12:24 0.7 °C -3.4 °C 1015.8 hPa North 3.2 km/h 11.3 km/h 74 % 0 mm
12:29 0.7 °C -3.3 °C 1015.8 hPa NE 4.2 km/h 46.7 km/h 75 % 0 mm
12:34 0.7 °C -3.6 °C 1015.8 hPa NNE 4 km/h 46.7 km/h 73 % 0 mm
12:39 0.6 °C -4.3 °C 1015.8 hPa NNE 1.4 km/h 46.7 km/h 70 % 0 mm
12:44 0.4 °C -4.2 °C 1015.8 hPa North 0.8 km/h 46.7 km/h 71 % 0 mm
12:49 0.4 °C -4.2 °C 1016.1 hPa NW 1.9 km/h 46.7 km/h 71 % 0 mm
12:54 0.6 °C -4.1 °C 1016.1 hPa NNW 4.8 km/h 46.7 km/h 71 % 0 mm
12:59 0.7 °C -4 °C 1016.1 hPa North 6.9 km/h 46.7 km/h 71 % 0 mm
13:04 0.8 °C -3.7 °C 1016.1 hPa NW 5.5 km/h 46.7 km/h 72 % 0 mm
13:10 0.8 °C -3.9 °C 1016.5 hPa North 3.1 km/h 46.7 km/h 71 % 0 mm
13:15 0.8 °C -4.3 °C 1016.1 hPa North 3.4 km/h 46.7 km/h 69 % 0 mm
13:20 0.8 °C -3.8 °C 1016.1 hPa NNW 1.8 km/h 46.7 km/h 71 % 0 mm
13:25 0.8 °C -4 °C 1016.1 hPa WNW 2.4 km/h 46.7 km/h 70 % 0 mm
13:30 0.8 °C -4.2 °C 1016.1 hPa NW 4.5 km/h 46.7 km/h 69 % 0 mm
13:35 0.8 °C -4 °C 1016.5 hPa NNW 2.3 km/h 46.7 km/h 70 % 0 mm
13:40 0.8 °C -4.1 °C 1016.1 hPa NNE 4 km/h 46.7 km/h 70 % 0 mm
13:45 0.8 °C -4 °C 1016.1 hPa NNW 2.1 km/h 46.7 km/h 70 % 0 mm
13:50 0.8 °C -4.6 °C 1016.1 hPa NNW 5 km/h 46.7 km/h 67 % 0 mm
13:55 0.9 °C -4.2 °C 1016.1 hPa North 3.1 km/h 46.7 km/h 69 % 0 mm
14:01 0.9 °C -4.1 °C 1016.1 hPa NNW 5.1 km/h 46.7 km/h 69 % 0 mm
14:06 1.1 °C -4.2 °C 1016.1 hPa NNE 7.1 km/h 46.7 km/h 68 % 0 mm
14:11 1.1 °C -4.6 °C 1016.5 hPa WNW 7.7 km/h 46.7 km/h 66 % 0 mm
14:16 0.9 °C -5.1 °C 1016.5 hPa NW 1.1 km/h 46.7 km/h 64 % 0 mm
14:21 0.9 °C -5.2 °C 1016.5 hPa NNW 4.5 km/h 46.7 km/h 64 % 0 mm
14:26 0.8 °C -5.2 °C 1016.5 hPa North 4.7 km/h 46.7 km/h 64 % 0 mm
14:31 0.8 °C -5.5 °C 1016.8 hPa NNE 2.7 km/h 46.7 km/h 63 % 0 mm
14:36 0.8 °C -5.3 °C 1017.2 hPa NNE 6.4 km/h 46.7 km/h 64 % 0 mm
14:41 0.8 °C -5.5 °C 1017.2 hPa NW 4.3 km/h 46.7 km/h 63 % 0 mm
14:46 0.8 °C -5.7 °C 1017.2 hPa NW 5.6 km/h 46.7 km/h 62 % 0 mm
14:51 0.8 °C -5.5 °C 1017.5 hPa NNE 6.1 km/h 46.7 km/h 63 % 0 mm
14:56 0.7 °C -5.7 °C 1017.2 hPa NNW 3.2 km/h 46.7 km/h 62 % 0 mm
15:01 0.7 °C -5.8 °C 1017.2 hPa North 8.2 km/h 46.7 km/h 62 % 0 mm
15:06 0.6 °C -5.8 °C 1017.2 hPa NW 4.5 km/h 46.7 km/h 62 % 0 mm
15:11 0.6 °C -5.7 °C 1017.2 hPa WNW 2.7 km/h 46.7 km/h 63 % 0 mm
15:17 0.6 °C -6.1 °C 1017.5 hPa NNW 4.7 km/h 46.7 km/h 61 % 0 mm
15:22 0.5 °C -6.4 °C 1017.5 hPa WNW 4 km/h 46.7 km/h 60 % 0 mm
15:27 0.4 °C -6.4 °C 1017.5 hPa WNW 1.1 km/h 46.7 km/h 60 % 0 mm
15:32 0.4 °C -6.5 °C 1017.5 hPa NW 1.4 km/h 46.7 km/h 60 % 0 mm
15:37 0.4 °C -6.3 °C 1017.2 hPa NW 0.6 km/h 46.7 km/h 61 % 0 mm
15:42 0.3 °C -6.3 °C 1017.5 hPa NNW 1.9 km/h 46.7 km/h 61 % 0 mm
15:47 0.3 °C -6.6 °C 1017.5 hPa NNW 1.8 km/h 46.7 km/h 60 % 0 mm
15:52 0.3 °C -7.1 °C 1017.5 hPa NNW 5.3 km/h 46.7 km/h 58 % 0 mm
15:57 0.2 °C -6.7 °C 1017.5 hPa North 6.8 km/h 46.7 km/h 60 % 0 mm
16:02 0.2 °C -6.7 °C 1017.8 hPa North 6.4 km/h 46.7 km/h 60 % 0 mm
16:07 0.2 °C -6.5 °C 1017.8 hPa North 4.3 km/h 46.7 km/h 61 % 0 mm
16:12 0.1 °C -6.7 °C 1017.8 hPa NNE 3.2 km/h 46.7 km/h 60 % 0 mm
16:17 0.1 °C -6.8 °C 1017.8 hPa North 6 km/h 46.7 km/h 60 % 0 mm
16:22 0 °C -6.8 °C 1017.8 hPa NW 1.9 km/h 46.7 km/h 60 % 0 mm
16:27 0 °C -6.8 °C 1017.8 hPa WNW 2.9 km/h 46.7 km/h 60 % 0 mm
16:33 -0.1 °C -6.9 °C 1018.2 hPa North 3.5 km/h 46.7 km/h 60 % 0 mm
16:38 -0.1 °C -6.9 °C 1018.2 hPa North 0.8 km/h 46.7 km/h 60 % 0 mm
16:43 -0.1 °C -6.9 °C 1018.5 hPa NNW 1.1 km/h 46.7 km/h 60 % 0 mm
16:48 -0.1 °C -6.5 °C 1018.5 hPa North 4.2 km/h 46.7 km/h 62 % 0 mm
16:53 -0.2 °C -6.6 °C 1018.5 hPa NW 2.9 km/h 46.7 km/h 62 % 0 mm
16:58 -0.2 °C -6.6 °C 1018.8 hPa North 0.5 km/h 46.7 km/h 62 % 0 mm
17:03 -0.2 °C -6.4 °C 1018.8 hPa WNW 2.3 km/h 46.7 km/h 63 % 0 mm
17:08 -0.3 °C -6.7 °C 1018.8 hPa North 4.3 km/h 46.7 km/h 62 % 0 mm
17:13 -0.3 °C -6.7 °C 1019.2 hPa North 1.9 km/h 46.7 km/h 62 % 0 mm
17:18 -0.3 °C -6.3 °C 1018.8 hPa NW 2.6 km/h 46.7 km/h 64 % 0 mm
17:23 -0.3 °C -6.3 °C 1019.2 hPa NW 4.2 km/h 46.7 km/h 64 % 0 mm
17:28 -0.4 °C -6.6 °C 1019.5 hPa NW 4.2 km/h 46.7 km/h 63 % 0 mm
17:33 -0.4 °C -6.6 °C 1019.5 hPa NW 4.5 km/h 46.7 km/h 63 % 0 mm
17:38 -0.5 °C -6.7 °C 1019.9 hPa NNW 4.3 km/h 46.7 km/h 63 % 0 mm
17:43 -0.6 °C -6.7 °C 1019.9 hPa NW 5 km/h 46.7 km/h 63 % 0 mm
17:49 -0.6 °C -6.7 °C 1019.9 hPa WNW 1.3 km/h 46.7 km/h 63 % 0 mm
17:54 -0.6 °C -6.8 °C 1020.2 hPa NNW 2.9 km/h 46.7 km/h 63 % 0 mm
17:59 -0.7 °C -6.8 °C 1020.2 hPa NNE 2.7 km/h 46.7 km/h 63 % 0 mm
18:04 -0.7 °C -7.3 °C 1020.5 hPa NW 0.8 km/h 46.7 km/h 61 % 0 mm
18:09 -0.7 °C -7.1 °C 1020.5 hPa NNW 1 km/h 46.7 km/h 62 % 0 mm
18:14 -0.7 °C -7.3 °C 1020.5 hPa NNW 4.8 km/h 9.7 km/h 61 % 0 mm
18:19 -0.7 °C -7.1 °C 1020.9 hPa NW 4.7 km/h 46.7 km/h 62 % 0 mm
18:24 -0.7 °C -7.1 °C 1020.9 hPa NW 1.6 km/h 11.3 km/h 62 % 0 mm
18:29 -0.7 °C -7.1 °C 1020.9 hPa NNW 4.8 km/h 9.7 km/h 62 % 0 mm
18:34 -0.7 °C -7.1 °C 1020.9 hPa NW 1.6 km/h 11.3 km/h 62 % 0 mm
18:39 -0.7 °C -7.1 °C 1020.5 hPa NW 4.8 km/h 11.3 km/h 62 % 0 mm
18:44 -0.7 °C -6.8 °C 1020.9 hPa NNW 1.6 km/h 4.8 km/h 63 % 0 mm
18:49 -0.7 °C -6.8 °C 1020.9 hPa NW 4.8 km/h 9.7 km/h 63 % 0 mm
18:54 -0.7 °C -7.1 °C 1020.5 hPa NNW 8 km/h 11.3 km/h 62 % 0 mm
18:59 -0.7 °C -7.1 °C 1020.9 hPa NW 6 km/h 46.7 km/h 62 % 0 mm
19:04 -0.7 °C -7.3 °C 1021.2 hPa NW 3.4 km/h 46.7 km/h 61 % 0 mm
19:09 -0.7 °C -7.1 °C 1021.2 hPa NW 4 km/h 46.7 km/h 62 % 0 mm
19:14 -0.7 °C -7.1 °C 1021.6 hPa West 1.8 km/h 46.7 km/h 62 % 0 mm
19:19 -0.7 °C -7.3 °C 1021.6 hPa WNW 5.1 km/h 46.7 km/h 61 % 0 mm
19:24 -0.7 °C -7.3 °C 1021.6 hPa NNW 4 km/h 46.7 km/h 61 % 0 mm
19:30 -0.7 °C -7.1 °C 1021.6 hPa NNW 2.7 km/h 46.7 km/h 62 % 0 mm
19:35 -0.7 °C -7.1 °C 1021.6 hPa NNW 4.2 km/h 46.7 km/h 62 % 0 mm
19:40 -0.7 °C -7.3 °C 1021.9 hPa North 4.3 km/h 46.7 km/h 61 % 0 mm
19:45 -0.7 °C -7.6 °C 1021.6 hPa North 6.8 km/h 46.7 km/h 60 % 0 mm
19:50 -0.7 °C -7.6 °C 1021.9 hPa NNW 4 km/h 46.7 km/h 60 % 0 mm
19:55 -0.8 °C -7.6 °C 1021.9 hPa NNW 2.4 km/h 46.7 km/h 60 % 0 mm
20:00 -0.8 °C -7.4 °C 1021.9 hPa NNW 3.2 km/h 46.7 km/h 61 % 0 mm
20:05 -0.8 °C -7.6 °C 1021.6 hPa North 6.8 km/h 46.7 km/h 60 % 0 mm
20:10 -0.8 °C -7.6 °C 1021.9 hPa WNW 3.1 km/h 46.7 km/h 60 % 0 mm
20:15 -0.9 °C -7.7 °C 1022.2 hPa NNE 3.4 km/h 46.7 km/h 60 % 0 mm
20:20 -0.9 °C -7.5 °C 1021.9 hPa NNW 4.8 km/h 46.7 km/h 61 % 0 mm
20:25 -0.9 °C -7.5 °C 1022.2 hPa NNE 1.4 km/h 46.7 km/h 61 % 0 mm
20:30 -1 °C -7.6 °C 1022.2 hPa NNE 3.4 km/h 46.7 km/h 61 % 0 mm
20:35 -1.1 °C -7.6 °C 1022.2 hPa North 7.6 km/h 46.7 km/h 61 % 0 mm
20:40 -1.2 °C -7.7 °C 1022.2 hPa North 6.6 km/h 46.7 km/h 61 % 0 mm
20:46 -1.2 °C -7.6 °C 1022.2 hPa North 3.9 km/h 46.7 km/h 62 % 0 mm
20:51 -1.3 °C -7.7 °C 1021.9 hPa North 7.4 km/h 46.7 km/h 62 % 0 mm
20:56 -1.4 °C -7.7 °C 1021.9 hPa North 1.8 km/h 46.7 km/h 62 % 0 mm
21:01 -1.4 °C -7.8 °C 1022.2 hPa NNE 2.9 km/h 46.7 km/h 62 % 0 mm
21:06 -1.4 °C -8 °C 1022.6 hPa NNW 5 km/h 46.7 km/h 61 % 0 mm
21:11 -1.5 °C -8.1 °C 1022.6 hPa NNE 8.5 km/h 46.7 km/h 61 % 0 mm
21:16 -1.5 °C -8.1 °C 1022.6 hPa NE 2.6 km/h 46.7 km/h 61 % 0 mm
21:21 -1.5 °C -8.1 °C 1022.6 hPa NNW 0.8 km/h 46.7 km/h 61 % 0 mm
21:26 -1.6 °C -8.1 °C 1022.2 hPa NW 5.8 km/h 46.7 km/h 61 % 0 mm
21:31 -1.6 °C -8.4 °C 1022.6 hPa NNW 4.7 km/h 46.7 km/h 60 % 0 mm
21:36 -1.7 °C -8.4 °C 1022.6 hPa North 9.2 km/h 46.7 km/h 60 % 0 mm
21:41 -1.7 °C -8.5 °C 1022.6 hPa NNW 8.7 km/h 46.7 km/h 60 % 0 mm
21:46 -1.8 °C -8.6 °C 1022.6 hPa North 6.9 km/h 46.7 km/h 60 % 0 mm
21:51 -1.9 °C -8.6 °C 1022.6 hPa NNE 7.4 km/h 46.7 km/h 60 % 0 mm
21:56 -1.9 °C -8.7 °C 1022.9 hPa NNW 6.9 km/h 46.7 km/h 60 % 0 mm
22:01 -2 °C -8.7 °C 1022.9 hPa NNE 4.8 km/h 46.7 km/h 60 % 0 mm
22:06 -2 °C -8.5 °C 1022.9 hPa North 6.1 km/h 46.7 km/h 61 % 0 mm
22:11 -2.1 °C -8.8 °C 1022.9 hPa NE 9 km/h 46.7 km/h 60 % 0 mm
22:17 -2.1 °C -9.1 °C 1022.6 hPa NNE 9.8 km/h 46.7 km/h 59 % 0 mm
22:22 -2.2 °C -9.1 °C 1022.6 hPa NNE 8.7 km/h 46.7 km/h 59 % 0 mm
22:27 -2.2 °C -9.1 °C 1022.2 hPa NNE 9 km/h 46.7 km/h 59 % 0 mm
22:32 -2.2 °C -9.2 °C 1022.6 hPa North 9.5 km/h 46.7 km/h 59 % 0 mm
22:37 -2.3 °C -9.2 °C 1022.6 hPa NNE 11.7 km/h 46.7 km/h 59 % 0 mm
22:42 -2.3 °C -9.3 °C 1022.6 hPa NNE 8 km/h 46.7 km/h 59 % 0 mm
22:47 -2.4 °C -9.1 °C 1022.6 hPa NNE 3.2 km/h 46.7 km/h 60 % 0 mm
22:52 -2.4 °C -9.2 °C 1022.2 hPa NE 10.5 km/h 46.7 km/h 60 % 0 mm
22:57 -2.5 °C -9.2 °C 1022.6 hPa NNE 7.2 km/h 46.7 km/h 60 % 0 mm
23:02 -2.6 °C -9.5 °C 1022.6 hPa North 7.2 km/h 46.7 km/h 59 % 0 mm
23:07 -2.6 °C -9.5 °C 1022.9 hPa NNE 7.7 km/h 46.7 km/h 59 % 0 mm
23:12 -2.6 °C -9.3 °C 1023.2 hPa NNW 9 km/h 46.7 km/h 60 % 0 mm
23:17 -2.7 °C -9.2 °C 1023.6 hPa NNE 10.6 km/h 46.7 km/h 61 % 0 mm
23:22 -2.7 °C -9.2 °C 1023.6 hPa NE 8.9 km/h 46.7 km/h 61 % 0 mm
23:27 -2.8 °C -9.5 °C 1023.6 hPa NNE 5.6 km/h 46.7 km/h 60 % 0 mm
23:32 -2.8 °C -9.5 °C 1023.9 hPa NNE 10.9 km/h 46.7 km/h 60 % 0 mm
23:38 -2.9 °C -9.8 °C 1023.9 hPa NNE 7.9 km/h 46.7 km/h 59 % 0 mm
23:43 -2.9 °C -9.6 °C 1023.9 hPa NNE 9.3 km/h 46.7 km/h 60 % 0 mm
23:48 -3 °C -9.9 °C 1023.9 hPa NNE 9.3 km/h 46.7 km/h 59 % 0 mm
23:53 -3.1 °C -10.2 °C 1024.3 hPa NNE 9.7 km/h 46.7 km/h 58 % 0 mm
23:58 -3.1 °C -10 °C 1024.3 hPa NNE 10.5 km/h 46.7 km/h 59 % 0 mm
Crab Meadow Weather
Compliments of Weather Underground - 3 mb

Script developed by  Jim McMurry - jmcmurry@mwt.net Adapted for the template by  Wim van der Kuil - Leuven-Template.eu

Wind Chill: Everyone has noticed that in winter it seems colder when the wind is blowing. Mothers recognize this and tell their children to wear more clothes. The question the children ask is how much more clothes. Mothers answer very precisely because Mothers know everything. For the rest of us, wind chill calculations are the basis for determining the effect of wind on body heat loss. The wind chill equivalent temperature equation is: Wind chill temperature = 35.74 + 0.6215T - 35.75V (**0.16) + 0.4275TV(**0.16) where T is the air temperature in Fahrenheit and V is the wind speed in MPH.